Time,TemperatureF,DewpointF,PressureIn,WindDirection,WindDirectionDegrees,WindSpeedMPH,WindSpeedGustMPH,Humidity,HourlyPrecipIn,Conditions,Clouds,dailyrainin,SoftwareType,DateUTC
2013-06-15 00:01:00,58.8,49.5,30.06,North,0,0.0,0.0,71,0.00,,,0.00,WUHU21623XXSP,2013-06-15 04:01:00,
2013-06-15 00:06:00,58.8,49.5,30.06,North,0,0.0,0.0,71,0.00,,,0.00,WUHU21623XXSP,2013-06-15 04:06:00,
2013-06-15 00:11:00,58.8,49.8,30.06,North,0,0.0,0.0,72,0.00,,,0.00,WUHU21623XXSP,2013-06-15 04:11:00,
2013-06-15 00:16:00,58.8,49.8,30.06,North,0,0.0,0.0,72,0.00,,,0.00,WUHU21623XXSP,2013-06-15 04:16:00,
2013-06-15 00:21:00,58.8,49.8,30.07,North,0,0.0,0.0,72,0.00,,,0.00,WUHU21623XXSP,2013-06-15 04:21:00,
2013-06-15 00:26:00,58.6,49.6,30.07,North,0,0.0,0.0,72,0.00,,,0.00,WUHU21623XXSP,2013-06-15 04:26:00,
2013-06-15 00:31:00,58.5,49.5,30.07,North,0,0.0,0.0,72,0.00,,,0.00,WUHU21623XXSP,2013-06-15 04:31:00,
2013-06-15 00:36:00,58.3,49.3,30.06,North,0,0.0,0.0,72,0.00,,,0.00,WUHU21623XXSP,2013-06-15 04:36:00,
2013-06-15 00:41:00,58.3,49.3,30.06,North,0,0.0,0.0,72,0.00,,,0.00,WUHU21623XXSP,2013-06-15 04:41:00,
2013-06-15 00:46:00,58.3,49.3,30.06,North,0,0.0,0.0,72,0.00,,,0.00,WUHU21623XXSP,2013-06-15 04:46:00,
2013-06-15 00:51:00,58.1,48.7,30.06,North,0,0.0,0.0,71,0.00,,,0.00,WUHU21623XXSP,2013-06-15 04:51:00,
2013-06-15 00:56:00,58.1,48.7,30.06,North,0,0.0,0.0,71,0.00,,,0.00,WUHU21623XXSP,2013-06-15 04:56:00,
2013-06-15 01:01:00,58.1,49.1,30.06,North,0,0.0,0.0,72,0.00,,,0.00,WUHU21623XXSP,2013-06-15 05:01:00,
2013-06-15 01:06:00,57.9,48.6,30.05,North,0,0.0,0.0,71,0.00,,,0.00,WUHU21623XXSP,2013-06-15 05:06:00,
2013-06-15 01:11:00,57.9,48.9,30.05,North,0,0.0,0.0,72,0.00,,,0.00,WUHU21623XXSP,2013-06-15 05:11:00,
2013-06-15 01:16:00,57.9,48.9,30.05,North,0,0.0,0.0,72,0.00,,,0.00,WUHU21623XXSP,2013-06-15 05:16:00,
2013-06-15 01:21:00,57.9,49.3,30.05,North,0,0.0,0.0,73,0.00,,,0.00,WUHU21623XXSP,2013-06-15 05:21:00,
2013-06-15 01:26:00,57.9,49.6,30.05,North,0,0.0,0.0,74,0.00,,,0.00,WUHU21623XXSP,2013-06-15 05:26:00,
2013-06-15 01:31:00,57.9,49.6,30.05,North,0,0.0,0.0,74,0.00,,,0.00,WUHU21623XXSP,2013-06-15 05:31:00,
2013-06-15 01:36:00,57.9,50.0,30.05,North,0,0.0,0.0,75,0.00,,,0.00,WUHU21623XXSP,2013-06-15 05:36:00,
2013-06-15 01:41:00,57.9,50.4,30.05,North,0,0.0,0.0,76,0.00,,,0.00,WUHU21623XXSP,2013-06-15 05:41:00,
2013-06-15 01:46:00,57.9,50.7,30.05,North,0,0.0,0.0,77,0.00,,,0.00,WUHU21623XXSP,2013-06-15 05:46:00,
2013-06-15 01:51:00,58.1,50.9,30.06,North,0,0.0,0.0,77,0.00,,,0.00,WUHU21623XXSP,2013-06-15 05:51:00,
2013-06-15 01:56:00,58.1,51.3,30.06,North,0,0.0,0.0,78,0.00,,,0.00,WUHU21623XXSP,2013-06-15 05:56:00,
2013-06-15 02:01:00,58.1,51.6,30.06,North,0,0.0,0.0,79,0.00,,,0.00,WUHU21623XXSP,2013-06-15 06:01:00,
2013-06-15 02:06:00,58.1,51.6,30.06,North,0,0.0,0.0,79,0.00,,,0.00,WUHU21623XXSP,2013-06-15 06:06:00,
2013-06-15 02:11:00,58.3,52.2,30.05,North,0,0.0,0.0,80,0.00,,,0.00,WUHU21623XXSP,2013-06-15 06:11:00,
2013-06-15 02:16:00,58.3,52.2,30.05,North,0,0.0,0.0,80,0.00,,,0.00,WUHU21623XXSP,2013-06-15 06:16:00,
2013-06-15 02:21:00,58.3,52.2,30.05,North,0,0.0,0.0,80,0.00,,,0.00,WUHU21623XXSP,2013-06-15 06:21:00,
2013-06-15 02:26:00,58.3,52.5,30.05,North,0,0.0,0.0,81,0.00,,,0.00,WUHU21623XXSP,2013-06-15 06:26:00,
2013-06-15 02:31:00,58.5,52.7,30.06,North,0,0.0,0.0,81,0.00,,,0.00,WUHU21623XXSP,2013-06-15 06:31:00,
2013-06-15 02:36:00,58.3,52.2,30.06,North,0,0.0,0.0,80,0.00,,,0.00,WUHU21623XXSP,2013-06-15 06:36:00,
2013-06-15 02:41:00,58.5,52.7,30.06,North,0,0.0,0.0,81,0.00,,,0.00,WUHU21623XXSP,2013-06-15 06:41:00,
2013-06-15 02:46:00,58.5,52.7,30.06,North,0,0.0,0.0,81,0.00,,,0.00,WUHU21623XXSP,2013-06-15 06:46:00,
2013-06-15 02:51:00,58.5,52.7,30.06,North,0,0.0,0.0,81,0.00,,,0.00,WUHU21623XXSP,2013-06-15 06:51:00,
2013-06-15 02:56:00,58.5,52.7,30.06,North,0,0.0,0.0,81,0.00,,,0.00,WUHU21623XXSP,2013-06-15 06:56:00,
2013-06-15 03:01:00,58.5,52.7,30.06,North,0,0.0,0.0,81,0.00,,,0.00,WUHU21623XXSP,2013-06-15 07:01:00,
2013-06-15 03:06:00,58.5,52.7,30.06,North,0,0.0,0.0,81,0.00,,,0.00,WUHU21623XXSP,2013-06-15 07:06:00,
2013-06-15 03:11:00,58.5,52.7,30.06,North,0,0.0,0.0,81,0.00,,,0.00,WUHU21623XXSP,2013-06-15 07:11:00,
2013-06-15 03:16:00,58.5,53.0,30.06,North,0,0.0,0.0,82,0.00,,,0.00,WUHU21623XXSP,2013-06-15 07:16:00,
2013-06-15 03:21:00,58.5,53.0,30.07,North,0,0.0,0.0,82,0.00,,,0.00,WUHU21623XXSP,2013-06-15 07:21:00,
2013-06-15 03:26:00,58.5,53.3,30.07,North,0,0.0,0.0,83,0.00,,,0.00,WUHU21623XXSP,2013-06-15 07:26:00,
2013-06-15 03:31:00,58.5,53.3,30.07,North,0,0.0,0.0,83,0.00,,,0.00,WUHU21623XXSP,2013-06-15 07:31:00,
2013-06-15 03:36:00,58.5,53.3,30.07,North,0,0.0,0.0,83,0.00,,,0.00,WUHU21623XXSP,2013-06-15 07:36:00,
2013-06-15 03:41:00,58.3,53.1,30.07,North,0,0.0,0.0,83,0.00,,,0.00,WUHU21623XXSP,2013-06-15 07:41:00,
2013-06-15 03:46:00,58.3,53.1,30.07,North,0,0.0,0.0,83,0.00,,,0.00,WUHU21623XXSP,2013-06-15 07:46:00,
2013-06-15 03:51:00,58.3,53.1,30.08,North,0,0.0,0.0,83,0.00,,,0.00,WUHU21623XXSP,2013-06-15 07:51:00,
2013-06-15 03:56:00,58.1,53.0,30.07,North,0,0.0,0.0,83,0.00,,,0.00,WUHU21623XXSP,2013-06-15 07:56:00,
2013-06-15 04:01:00,58.1,53.0,30.07,North,0,0.0,0.0,83,0.00,,,0.00,WUHU21623XXSP,2013-06-15 08:01:00,
2013-06-15 04:06:00,58.1,53.0,30.08,North,0,0.0,0.0,83,0.00,,,0.00,WUHU21623XXSP,2013-06-15 08:06:00,
2013-06-15 04:11:00,57.9,53.1,30.07,North,0,0.0,0.0,84,0.00,,,0.00,WUHU21623XXSP,2013-06-15 08:11:00,
2013-06-15 04:16:00,57.9,53.1,30.07,North,0,0.0,0.0,84,0.00,,,0.00,WUHU21623XXSP,2013-06-15 08:16:00,
2013-06-15 04:21:00,57.9,53.1,30.07,North,0,0.0,0.0,84,0.00,,,0.00,WUHU21623XXSP,2013-06-15 08:21:00,
2013-06-15 04:26:00,57.7,52.9,30.07,North,0,0.0,0.0,84,0.00,,,0.00,WUHU21623XXSP,2013-06-15 08:26:00,
2013-06-15 04:31:00,57.7,52.9,30.07,North,0,0.0,0.0,84,0.00,,,0.00,WUHU21623XXSP,2013-06-15 08:31:00,
2013-06-15 04:36:00,57.7,53.2,30.07,North,0,0.0,0.0,85,0.00,,,0.00,WUHU21623XXSP,2013-06-15 08:36:00,
2013-06-15 04:41:00,57.6,53.1,30.07,North,0,0.0,0.0,85,0.00,,,0.00,WUHU21623XXSP,2013-06-15 08:41:00,
2013-06-15 04:46:00,57.4,52.9,30.07,North,0,0.0,0.0,85,0.00,,,0.00,WUHU21623XXSP,2013-06-15 08:46:00,
2013-06-15 04:51:00,57.4,52.9,30.07,North,0,0.0,0.0,85,0.00,,,0.00,WUHU21623XXSP,2013-06-15 08:51:00,
2013-06-15 04:56:00,57.4,53.2,30.07,North,0,0.0,0.0,86,0.00,,,0.00,WUHU21623XXSP,2013-06-15 08:56:00,
2013-06-15 05:01:00,57.2,53.0,30.06,North,0,0.0,0.0,86,0.00,,,0.00,WUHU21623XXSP,2013-06-15 09:01:00,
2013-06-15 05:06:00,57.0,52.5,30.06,North,0,0.0,0.0,85,0.00,,,0.00,WUHU21623XXSP,2013-06-15 09:06:00,
2013-06-15 05:11:00,57.0,52.5,30.06,North,0,0.0,0.0,85,0.00,,,0.00,WUHU21623XXSP,2013-06-15 09:11:00,
2013-06-15 05:16:00,57.0,52.8,30.06,North,0,0.0,0.0,86,0.00,,,0.00,WUHU21623XXSP,2013-06-15 09:16:00,
2013-06-15 05:21:00,56.8,52.7,30.06,North,0,0.0,0.0,86,0.00,,,0.00,WUHU21623XXSP,2013-06-15 09:21:00,
2013-06-15 05:26:00,56.8,52.7,30.06,North,0,0.0,0.0,86,0.00,,,0.00,WUHU21623XXSP,2013-06-15 09:26:00,
2013-06-15 05:31:00,56.7,52.5,30.06,North,0,0.0,0.0,86,0.00,,,0.00,WUHU21623XXSP,2013-06-15 09:31:00,
2013-06-15 05:36:00,56.5,52.6,30.06,North,0,0.0,0.0,87,0.00,,,0.00,WUHU21623XXSP,2013-06-15 09:36:00,
2013-06-15 05:41:00,56.5,52.6,30.06,North,0,0.0,0.0,87,0.00,,,0.00,WUHU21623XXSP,2013-06-15 09:41:00,
2013-06-15 05:46:00,56.5,52.6,30.06,North,0,0.0,0.0,87,0.00,,,0.00,WUHU21623XXSP,2013-06-15 09:46:00,
2013-06-15 05:51:00,56.5,52.6,30.06,North,0,0.0,0.0,87,0.00,,,0.00,WUHU21623XXSP,2013-06-15 09:51:00,
2013-06-15 05:56:00,56.5,53.0,30.06,North,0,0.0,0.0,88,0.00,,,0.00,WUHU21623XXSP,2013-06-15 09:56:00,
2013-06-15 06:01:00,56.7,53.1,30.07,North,0,0.0,0.0,88,0.00,,,0.00,WUHU21623XXSP,2013-06-15 10:01:00,
2013-06-15 06:06:00,56.8,53.3,30.07,North,0,0.0,0.0,88,0.00,,,0.00,WUHU21623XXSP,2013-06-15 10:06:00,
2013-06-15 06:11:00,56.8,53.3,30.07,North,0,0.0,0.0,88,0.00,,,0.00,WUHU21623XXSP,2013-06-15 10:11:00,
2013-06-15 06:16:00,57.0,53.5,30.08,North,0,0.0,0.0,88,0.00,,,0.00,WUHU21623XXSP,2013-06-15 10:16:00,
2013-06-15 06:21:00,57.0,53.8,30.08,North,0,0.0,0.0,89,0.00,,,0.00,WUHU21623XXSP,2013-06-15 10:21:00,
2013-06-15 06:26:00,57.2,53.8,30.08,North,0,0.0,0.0,89,0.00,,,0.00,WUHU21623XXSP,2013-06-15 10:26:00,
2013-06-15 06:31:00,57.4,54.2,30.09,North,0,0.0,0.0,89,0.00,,,0.00,WUHU21623XXSP,2013-06-15 10:31:00,
2013-06-15 06:36:00,57.4,54.2,30.09,North,0,0.0,0.0,89,0.00,,,0.00,WUHU21623XXSP,2013-06-15 10:36:00,
2013-06-15 06:41:00,57.6,54.4,30.09,North,0,0.0,0.0,89,0.00,,,0.00,WUHU21623XXSP,2013-06-15 10:41:00,
2013-06-15 06:46:00,57.6,54.4,30.09,North,0,0.0,0.0,89,0.00,,,0.00,WUHU21623XXSP,2013-06-15 10:46:00,
2013-06-15 06:51:00,57.7,54.5,30.09,North,0,0.0,0.0,89,0.00,,,0.00,WUHU21623XXSP,2013-06-15 10:51:00,
2013-06-15 06:56:00,57.7,54.5,30.09,North,0,0.0,0.0,89,0.00,,,0.00,WUHU21623XXSP,2013-06-15 10:56:00,
2013-06-15 07:01:00,57.9,54.7,30.09,North,0,0.0,0.0,89,0.00,,,0.00,WUHU21623XXSP,2013-06-15 11:01:00,
2013-06-15 07:06:00,57.9,54.7,30.10,North,0,0.0,0.0,89,0.00,,,0.00,WUHU21623XXSP,2013-06-15 11:06:00,
2013-06-15 07:11:00,58.1,54.9,30.10,North,0,0.0,0.0,89,0.00,,,0.00,WUHU21623XXSP,2013-06-15 11:11:00,
2013-06-15 07:16:00,58.3,55.1,30.10,North,0,0.0,0.0,89,0.00,,,0.00,WUHU21623XXSP,2013-06-15 11:16:00,
2013-06-15 07:21:00,58.5,55.3,30.10,North,0,0.0,0.0,89,0.00,,,0.00,WUHU21623XXSP,2013-06-15 11:21:00,
2013-06-15 07:26:00,58.5,55.3,30.09,North,0,0.0,0.0,89,0.00,,,0.00,WUHU21623XXSP,2013-06-15 11:26:00,
2013-06-15 07:31:00,58.8,55.3,30.10,North,0,0.0,0.0,88,0.00,,,0.00,WUHU21623XXSP,2013-06-15 11:31:00,
2013-06-15 07:36:00,58.8,55.3,30.09,North,0,0.0,0.0,88,0.00,,,0.00,WUHU21623XXSP,2013-06-15 11:36:00,
2013-06-15 07:41:00,58.8,55.3,30.09,North,0,0.0,0.0,88,0.00,,,0.00,WUHU21623XXSP,2013-06-15 11:41:00,
2013-06-15 07:46:00,58.8,55.3,30.10,North,0,0.0,0.0,88,0.00,,,0.00,WUHU21623XXSP,2013-06-15 11:46:00,
2013-06-15 07:51:00,58.8,55.3,30.09,North,0,0.0,0.0,88,0.00,,,0.00,WUHU21623XXSP,2013-06-15 11:51:00,
2013-06-15 07:56:00,59.2,55.7,30.09,North,0,0.0,0.0,88,0.00,,,0.00,WUHU21623XXSP,2013-06-15 11:56:00,
2013-06-15 08:01:00,59.4,55.8,30.09,North,0,0.0,0.0,88,0.00,,,0.00,WUHU21623XXSP,2013-06-15 12:01:00,
2013-06-15 08:06:00,59.7,55.9,30.09,North,0,0.0,0.0,87,0.00,,,0.00,WUHU21623XXSP,2013-06-15 12:06:00,
2013-06-15 08:11:00,59.7,55.9,30.09,North,0,0.0,0.0,87,0.00,,,0.00,WUHU21623XXSP,2013-06-15 12:11:00,
2013-06-15 08:16:00,60.1,56.2,30.09,North,0,0.0,0.0,87,0.00,,,0.00,WUHU21623XXSP,2013-06-15 12:16:00,
2013-06-15 08:21:00,60.4,56.6,30.09,North,0,0.0,0.0,87,0.00,,,0.00,WUHU21623XXSP,2013-06-15 12:21:00,
2013-06-15 08:26:00,60.6,56.8,30.09,North,0,0.0,0.0,87,0.00,,,0.00,WUHU21623XXSP,2013-06-15 12:26:00,
2013-06-15 08:31:00,61.0,56.8,30.09,North,0,0.0,0.0,86,0.00,,,0.00,WUHU21623XXSP,2013-06-15 12:31:00,
2013-06-15 08:36:00,61.5,57.3,30.09,North,0,0.0,0.0,86,0.00,,,0.00,WUHU21623XXSP,2013-06-15 12:36:00,
2013-06-15 08:41:00,61.9,57.7,30.09,North,0,0.0,0.0,86,0.00,,,0.00,WUHU21623XXSP,2013-06-15 12:41:00,
2013-06-15 08:46:00,62.2,57.7,30.09,North,0,0.0,0.0,85,0.00,,,0.00,WUHU21623XXSP,2013-06-15 12:46:00,
2013-06-15 08:51:00,62.8,58.2,30.09,North,0,0.0,0.0,85,0.00,,,0.00,WUHU21623XXSP,2013-06-15 12:51:00,
2013-06-15 08:56:00,63.1,58.5,30.09,North,0,0.0,0.0,85,0.00,,,0.00,WUHU21623XXSP,2013-06-15 12:56:00,
2013-06-15 09:01:00,63.3,58.4,30.09,North,0,0.0,0.0,84,0.00,,,0.00,WUHU21623XXSP,2013-06-15 13:01:00,
2013-06-15 09:06:00,64.0,58.8,30.09,North,0,0.0,0.0,83,0.00,,,0.00,WUHU21623XXSP,2013-06-15 13:06:00,
2013-06-15 09:11:00,64.2,58.9,30.09,North,0,0.0,0.0,83,0.00,,,0.00,WUHU21623XXSP,2013-06-15 13:11:00,
2013-06-15 09:16:00,64.6,59.3,30.09,North,0,0.0,0.0,83,0.00,,,0.00,WUHU21623XXSP,2013-06-15 13:16:00,
2013-06-15 09:21:00,65.1,59.1,30.09,North,0,0.0,0.0,81,0.00,,,0.00,WUHU21623XXSP,2013-06-15 13:21:00,
2013-06-15 09:26:00,65.5,59.5,30.08,North,0,0.0,0.0,81,0.00,,,0.00,WUHU21623XXSP,2013-06-15 13:26:00,
2013-06-15 09:31:00,65.8,59.5,30.09,North,0,0.0,0.0,80,0.00,,,0.00,WUHU21623XXSP,2013-06-15 13:31:00,
2013-06-15 09:36:00,66.2,59.7,30.08,North,0,0.0,0.0,80,0.00,,,0.00,WUHU21623XXSP,2013-06-15 13:36:00,
2013-06-15 09:41:00,66.4,59.7,30.08,North,0,0.0,0.0,79,0.00,,,0.00,WUHU21623XXSP,2013-06-15 13:41:00,
2013-06-15 09:46:00,66.6,59.5,30.08,NE,45,1.8,1.8,78,0.00,,,0.00,WUHU21623XXSP,2013-06-15 13:46:00,
2013-06-15 09:51:00,66.7,59.7,30.08,North,0,0.0,0.0,78,0.00,,,0.00,WUHU21623XXSP,2013-06-15 13:51:00,
2013-06-15 09:56:00,66.9,59.5,30.08,North,0,0.0,0.0,77,0.00,,,0.00,WUHU21623XXSP,2013-06-15 13:56:00,
2013-06-15 10:01:00,67.1,59.7,30.08,North,0,0.0,0.0,77,0.00,,,0.00,WUHU21623XXSP,2013-06-15 14:01:00,
2013-06-15 10:06:00,67.3,59.8,30.08,North,0,0.0,0.0,77,0.00,,,0.00,WUHU21623XXSP,2013-06-15 14:06:00,
2013-06-15 10:11:00,67.8,60.0,30.08,North,0,0.0,0.0,76,0.00,,,0.00,WUHU21623XXSP,2013-06-15 14:11:00,
2013-06-15 10:16:00,68.0,60.2,30.07,North,0,0.0,0.0,76,0.00,,,0.00,WUHU21623XXSP,2013-06-15 14:16:00,
2013-06-15 10:21:00,68.5,60.3,30.07,North,0,0.0,0.0,75,0.00,,,0.00,WUHU21623XXSP,2013-06-15 14:21:00,
2013-06-15 10:26:00,68.7,60.5,30.07,North,0,0.0,0.0,75,0.00,,,0.00,WUHU21623XXSP,2013-06-15 14:26:00,
2013-06-15 10:31:00,68.9,60.2,30.06,North,0,0.0,0.0,74,0.00,,,0.00,WUHU21623XXSP,2013-06-15 14:31:00,
2013-06-15 10:36:00,69.4,60.7,30.06,North,0,0.0,0.0,74,0.00,,,0.00,WUHU21623XXSP,2013-06-15 14:36:00,
2013-06-15 10:41:00,69.4,60.7,30.06,North,0,0.0,0.0,74,0.00,,,0.00,WUHU21623XXSP,2013-06-15 14:41:00,
2013-06-15 10:46:00,69.6,60.5,30.06,North,0,0.0,0.0,73,0.00,,,0.00,WUHU21623XXSP,2013-06-15 14:46:00,
2013-06-15 10:51:00,70.2,61.4,30.06,SSW,202,1.3,1.3,74,0.00,,,0.00,WUHU21623XXSP,2013-06-15 14:51:00,
2013-06-15 10:56:00,70.3,60.8,30.06,SSW,202,0.9,0.9,72,0.00,,,0.00,WUHU21623XXSP,2013-06-15 14:56:00,
2013-06-15 11:01:00,70.7,61.2,30.06,North,0,0.0,0.0,72,0.00,,,0.00,WUHU21623XXSP,2013-06-15 15:01:00,
2013-06-15 11:06:00,71.2,61.4,30.05,SW,225,3.6,3.6,71,0.00,,,0.00,WUHU21623XXSP,2013-06-15 15:06:00,
2013-06-15 11:11:00,71.4,60.7,30.05,SW,225,2.3,2.7,69,0.00,,,0.00,WUHU21623XXSP,2013-06-15 15:11:00,
2013-06-15 11:16:00,71.8,61.1,30.05,North,0,0.0,0.0,69,0.00,,,0.00,WUHU21623XXSP,2013-06-15 15:16:00,
2013-06-15 11:21:00,72.1,61.4,30.05,North,0,0.0,0.0,69,0.00,,,0.00,WUHU21623XXSP,2013-06-15 15:21:00,
2013-06-15 11:26:00,72.3,61.6,30.05,North,0,0.0,0.0,69,0.00,,,0.00,WUHU21623XXSP,2013-06-15 15:26:00,
2013-06-15 11:31:00,72.5,61.8,30.05,North,0,0.0,0.0,69,0.00,,,0.00,WUHU21623XXSP,2013-06-15 15:31:00,
2013-06-15 11:36:00,72.9,62.2,30.04,North,0,0.0,0.0,69,0.00,,,0.00,WUHU21623XXSP,2013-06-15 15:36:00,
2013-06-15 11:41:00,73.0,62.3,30.04,North,0,0.0,0.0,69,0.00,,,0.00,WUHU21623XXSP,2013-06-15 15:41:00,
2013-06-15 11:46:00,73.2,62.1,30.04,North,0,0.0,0.0,68,0.00,,,0.00,WUHU21623XXSP,2013-06-15 15:46:00,
2013-06-15 11:51:00,73.8,62.1,30.04,North,0,0.0,0.0,67,0.00,,,0.00,WUHU21623XXSP,2013-06-15 15:51:00,
2013-06-15 11:56:00,73.9,62.7,30.04,North,0,0.0,0.0,68,0.00,,,0.00,WUHU21623XXSP,2013-06-15 15:56:00,
2013-06-15 12:01:00,74.1,62.9,30.04,North,0,0.0,0.0,68,0.00,,,0.00,WUHU21623XXSP,2013-06-15 16:01:00,
2013-06-15 12:06:00,74.5,62.8,30.04,North,0,0.0,0.0,67,0.00,,,0.00,WUHU21623XXSP,2013-06-15 16:06:00,
2013-06-15 12:11:00,74.7,63.0,30.04,North,0,0.0,0.0,67,0.00,,,0.00,WUHU21623XXSP,2013-06-15 16:11:00,
2013-06-15 12:16:00,74.8,62.7,30.03,North,0,0.0,0.0,66,0.00,,,0.00,WUHU21623XXSP,2013-06-15 16:16:00,
2013-06-15 12:21:00,75.0,63.3,30.04,North,0,0.0,0.0,67,0.00,,,0.00,WUHU21623XXSP,2013-06-15 16:21:00,
2013-06-15 12:26:00,75.0,62.9,30.03,North,0,0.0,0.0,66,0.00,,,0.00,WUHU21623XXSP,2013-06-15 16:26:00,
2013-06-15 12:31:00,75.2,63.5,30.04,North,0,0.0,0.0,67,0.00,,,0.00,WUHU21623XXSP,2013-06-15 16:31:00,
2013-06-15 12:36:00,75.0,62.4,30.04,North,0,0.0,0.0,65,0.00,,,0.00,WUHU21623XXSP,2013-06-15 16:36:00,
2013-06-15 12:41:00,75.0,62.0,30.04,SSW,202,1.1,1.1,64,0.00,,,0.00,WUHU21623XXSP,2013-06-15 16:41:00,
2013-06-15 12:46:00,75.0,62.0,30.04,SSW,202,1.3,1.3,64,0.00,,,0.00,WUHU21623XXSP,2013-06-15 16:46:00,
2013-06-15 12:51:00,75.0,62.4,30.04,SW,225,1.1,1.1,65,0.00,,,0.00,WUHU21623XXSP,2013-06-15 16:51:00,
2013-06-15 12:56:00,75.0,62.0,30.04,North,0,0.0,0.0,64,0.00,,,0.00,WUHU21623XXSP,2013-06-15 16:56:00,
2013-06-15 13:01:00,75.4,61.5,30.04,SSW,202,1.8,1.8,62,0.00,,,0.00,WUHU21623XXSP,2013-06-15 17:01:00,
2013-06-15 13:06:00,75.6,61.2,30.03,North,0,0.0,0.0,61,0.00,,,0.00,WUHU21623XXSP,2013-06-15 17:06:00,
2013-06-15 13:11:00,75.4,61.0,30.03,North,0,0.0,0.0,61,0.00,,,0.00,WUHU21623XXSP,2013-06-15 17:11:00,
2013-06-15 13:16:00,74.8,61.4,30.04,North,0,0.0,0.0,63,0.00,,,0.00,WUHU21623XXSP,2013-06-15 17:16:00,
2013-06-15 13:21:00,74.7,61.2,30.03,SSW,202,0.7,0.7,63,0.00,,,0.00,WUHU21623XXSP,2013-06-15 17:21:00,
2013-06-15 13:26:00,74.5,61.0,30.03,North,0,0.0,0.0,63,0.00,,,0.00,WUHU21623XXSP,2013-06-15 17:26:00,
2013-06-15 13:31:00,74.1,61.6,30.04,North,0,0.0,0.0,65,0.00,,,0.00,WUHU21623XXSP,2013-06-15 17:31:00,
2013-06-15 13:36:00,73.9,61.4,30.04,North,0,0.0,0.0,65,0.00,,,0.00,WUHU21623XXSP,2013-06-15 17:36:00,
2013-06-15 13:41:00,73.6,61.5,30.04,North,0,0.0,0.0,66,0.00,,,0.00,WUHU21623XXSP,2013-06-15 17:41:00,
2013-06-15 13:46:00,73.2,61.6,30.03,North,0,0.0,0.0,67,0.00,,,0.00,WUHU21623XXSP,2013-06-15 17:46:00,
2013-06-15 13:51:00,73.0,61.4,30.03,North,0,0.0,0.0,67,0.00,,,0.00,WUHU21623XXSP,2013-06-15 17:51:00,
2013-06-15 13:56:00,73.0,61.4,30.03,North,0,0.0,0.0,67,0.00,,,0.00,WUHU21623XXSP,2013-06-15 17:56:00,
2013-06-15 14:01:00,72.7,61.5,30.03,North,0,0.0,0.0,68,0.00,,,0.00,WUHU21623XXSP,2013-06-15 18:01:00,
2013-06-15 14:06:00,72.7,61.5,30.03,North,0,0.0,0.0,68,0.00,,,0.00,WUHU21623XXSP,2013-06-15 18:06:00,
2013-06-15 14:11:00,72.3,61.6,30.03,North,0,0.0,0.0,69,0.00,,,0.00,WUHU21623XXSP,2013-06-15 18:11:00,
2013-06-15 14:16:00,72.3,61.6,30.03,North,0,0.0,0.0,69,0.00,,,0.00,WUHU21623XXSP,2013-06-15 18:16:00,
2013-06-15 14:21:00,72.3,62.4,30.03,North,0,0.0,0.0,71,0.00,,,0.00,WUHU21623XXSP,2013-06-15 18:21:00,
2013-06-15 14:26:00,72.3,62.4,30.03,North,0,0.0,0.0,71,0.00,,,0.00,WUHU21623XXSP,2013-06-15 18:26:00,
2013-06-15 14:31:00,72.3,62.8,30.03,North,0,0.0,0.0,72,0.00,,,0.00,WUHU21623XXSP,2013-06-15 18:31:00,
2013-06-15 14:36:00,72.3,62.8,30.03,North,0,0.0,0.0,72,0.00,,,0.00,WUHU21623XXSP,2013-06-15 18:36:00,
2013-06-15 14:41:00,72.3,63.2,30.03,North,0,0.0,0.0,73,0.00,,,0.00,WUHU21623XXSP,2013-06-15 18:41:00,
2013-06-15 14:46:00,72.3,63.2,30.04,North,0,0.0,0.0,73,0.00,,,0.00,WUHU21623XXSP,2013-06-15 18:46:00,
2013-06-15 14:51:00,72.3,63.2,30.04,North,0,0.0,0.0,73,0.00,,,0.00,WUHU21623XXSP,2013-06-15 18:51:00,
2013-06-15 14:56:00,72.3,63.2,30.04,North,0,0.0,0.0,73,0.00,,,0.00,WUHU21623XXSP,2013-06-15 18:56:00,
2013-06-15 15:01:00,72.5,63.0,30.04,North,0,0.0,0.0,72,0.00,,,0.00,WUHU21623XXSP,2013-06-15 19:01:00,
2013-06-15 15:06:00,72.5,63.0,30.03,North,0,0.0,0.0,72,0.00,,,0.00,WUHU21623XXSP,2013-06-15 19:06:00,
2013-06-15 15:11:00,72.5,63.0,30.03,North,0,0.0,0.0,72,0.00,,,0.00,WUHU21623XXSP,2013-06-15 19:11:00,
2013-06-15 15:16:00,72.3,63.2,30.03,North,0,0.0,0.0,73,0.00,,,0.00,WUHU21623XXSP,2013-06-15 19:16:00,
2013-06-15 15:21:00,72.1,63.0,30.03,North,0,0.0,0.0,73,0.00,,,0.00,WUHU21623XXSP,2013-06-15 19:21:00,
2013-06-15 15:26:00,72.0,63.6,30.03,North,0,0.0,0.0,75,0.00,,,0.00,WUHU21623XXSP,2013-06-15 19:26:00,
2013-06-15 15:31:00,71.8,63.8,30.03,North,0,0.0,0.0,76,0.00,,,0.00,WUHU21623XXSP,2013-06-15 19:31:00,
2013-06-15 15:36:00,71.8,63.4,30.03,North,0,0.0,0.0,75,0.00,,,0.00,WUHU21623XXSP,2013-06-15 19:36:00,
2013-06-15 15:41:00,71.8,63.4,30.02,North,0,0.0,0.0,75,0.00,,,0.00,WUHU21623XXSP,2013-06-15 19:41:00,
2013-06-15 15:46:00,71.4,63.0,30.02,North,0,0.0,0.0,75,0.00,,,0.00,WUHU21623XXSP,2013-06-15 19:46:00,
2013-06-15 15:51:00,71.4,63.0,30.02,North,0,0.0,0.0,75,0.00,,,0.00,WUHU21623XXSP,2013-06-15 19:51:00,
2013-06-15 15:56:00,71.4,63.0,30.02,North,0,0.0,0.0,75,0.00,,,0.00,WUHU21623XXSP,2013-06-15 19:56:00,
2013-06-15 16:01:00,71.8,63.4,30.02,North,0,0.0,0.0,75,0.00,,,0.00,WUHU21623XXSP,2013-06-15 20:01:00,
2013-06-15 16:06:00,71.8,63.0,30.02,North,0,0.0,0.0,74,0.00,,,0.00,WUHU21623XXSP,2013-06-15 20:06:00,
2013-06-15 16:11:00,71.8,63.0,30.02,North,0,0.0,0.0,74,0.00,,,0.00,WUHU21623XXSP,2013-06-15 20:11:00,
2013-06-15 16:16:00,71.8,63.4,30.02,North,0,0.0,0.0,75,0.00,,,0.00,WUHU21623XXSP,2013-06-15 20:16:00,
2013-06-15 16:22:00,71.8,63.4,30.01,North,0,0.0,0.0,75,0.00,,,0.00,WUHU21623XXSP,2013-06-15 20:22:00,
2013-06-15 16:27:00,72.0,63.6,30.01,North,0,0.0,0.0,75,0.00,,,0.00,WUHU21623XXSP,2013-06-15 20:27:00,
2013-06-15 16:32:00,72.0,63.6,30.01,North,0,0.0,0.0,75,0.00,,,0.00,WUHU21623XXSP,2013-06-15 20:32:00,
2013-06-15 16:37:00,72.0,63.6,30.01,North,0,0.0,0.0,75,0.00,,,0.00,WUHU21623XXSP,2013-06-15 20:37:00,
2013-06-15 16:42:00,72.0,63.6,30.01,North,0,0.0,0.0,75,0.00,,,0.00,WUHU21623XXSP,2013-06-15 20:42:00,
2013-06-15 16:47:00,71.8,63.4,30.01,North,0,0.0,0.0,75,0.00,,,0.00,WUHU21623XXSP,2013-06-15 20:47:00,
2013-06-15 16:52:00,71.8,63.4,30.01,North,0,0.0,0.0,75,0.00,,,0.00,WUHU21623XXSP,2013-06-15 20:52:00,
2013-06-15 16:57:00,71.8,63.0,30.01,North,0,0.0,0.0,74,0.00,,,0.00,WUHU21623XXSP,2013-06-15 20:57:00,
2013-06-15 17:02:00,71.4,62.7,30.01,North,0,0.0,0.0,74,0.00,,,0.00,WUHU21623XXSP,2013-06-15 21:02:00,
2013-06-15 17:07:00,71.4,63.0,30.01,North,0,0.0,0.0,75,0.00,,,0.00,WUHU21623XXSP,2013-06-15 21:07:00,
2013-06-15 17:12:00,71.4,63.0,30.00,North,0,0.0,0.0,75,0.00,,,0.00,WUHU21623XXSP,2013-06-15 21:12:00,
2013-06-15 17:17:00,71.2,62.9,30.01,North,0,0.0,0.0,75,0.00,,,0.00,WUHU21623XXSP,2013-06-15 21:17:00,
2013-06-15 17:22:00,71.2,62.9,30.01,North,0,0.0,0.0,75,0.00,,,0.00,WUHU21623XXSP,2013-06-15 21:22:00,
2013-06-15 17:27:00,71.2,62.9,30.01,North,0,0.0,0.0,75,0.00,,,0.00,WUHU21623XXSP,2013-06-15 21:27:00,
2013-06-15 17:32:00,71.2,63.2,30.01,North,0,0.0,0.0,76,0.00,,,0.00,WUHU21623XXSP,2013-06-15 21:32:00,
2013-06-15 17:37:00,71.2,63.2,30.00,North,0,0.0,0.0,76,0.00,,,0.00,WUHU21623XXSP,2013-06-15 21:37:00,
2013-06-15 17:42:00,71.4,63.0,30.00,North,0,0.0,0.0,75,0.00,,,0.00,WUHU21623XXSP,2013-06-15 21:42:00,
2013-06-15 17:47:00,71.8,63.4,30.00,North,0,0.0,0.0,75,0.00,,,0.00,WUHU21623XXSP,2013-06-15 21:47:00,
2013-06-15 17:52:00,72.0,63.6,29.99,North,0,0.0,0.0,75,0.00,,,0.00,WUHU21623XXSP,2013-06-15 21:52:00,
2013-06-15 17:57:00,72.1,63.8,29.99,North,0,0.0,0.0,75,0.00,,,0.00,WUHU21623XXSP,2013-06-15 21:57:00,
2013-06-15 18:02:00,72.5,63.4,29.99,North,0,0.0,0.0,73,0.00,,,0.00,WUHU21623XXSP,2013-06-15 22:02:00,
2013-06-15 18:07:00,72.7,63.6,29.99,North,0,0.0,0.0,73,0.00,,,0.00,WUHU21623XXSP,2013-06-15 22:07:00,
2013-06-15 18:12:00,72.7,63.6,29.99,North,0,0.0,0.0,73,0.00,,,0.00,WUHU21623XXSP,2013-06-15 22:12:00,
2013-06-15 18:17:00,72.9,63.7,29.99,North,0,0.0,0.0,73,0.00,,,0.00,WUHU21623XXSP,2013-06-15 22:17:00,
2013-06-15 18:22:00,72.7,63.2,29.99,SSW,202,0.7,0.7,72,0.00,,,0.00,WUHU21623XXSP,2013-06-15 22:22:00,
2013-06-15 18:27:00,72.7,63.2,29.98,SW,225,2.5,2.5,72,0.00,,,0.00,WUHU21623XXSP,2013-06-15 22:27:00,
2013-06-15 18:32:00,72.7,62.8,29.98,SW,215,2.3,2.5,71,0.00,,,0.00,WUHU21623XXSP,2013-06-15 22:32:00,
2013-06-15 18:37:00,72.5,62.6,29.98,SW,225,0.9,0.9,71,0.00,,,0.00,WUHU21623XXSP,2013-06-15 22:37:00,
2013-06-15 18:42:00,72.3,62.4,29.98,SW,225,2.5,4.0,71,0.00,,,0.00,WUHU21623XXSP,2013-06-15 22:42:00,
2013-06-15 18:47:00,72.1,62.3,29.98,SW,225,2.3,3.4,71,0.00,,,0.00,WUHU21623XXSP,2013-06-15 22:47:00,
2013-06-15 18:52:00,71.8,61.5,29.98,SSW,202,4.5,4.5,70,0.00,,,0.00,WUHU21623XXSP,2013-06-15 22:52:00,
2013-06-15 18:57:00,71.4,60.7,29.98,SSW,202,4.5,4.5,69,0.00,,,0.00,WUHU21623XXSP,2013-06-15 22:57:00,
2013-06-15 19:02:00,71.4,61.2,29.98,North,0,0.0,0.0,70,0.00,,,0.00,WUHU21623XXSP,2013-06-15 23:02:00,
2013-06-15 19:07:00,71.2,61.0,29.98,SSW,202,1.8,1.8,70,0.00,,,0.00,WUHU21623XXSP,2013-06-15 23:07:00,
2013-06-15 19:12:00,71.2,61.0,29.99,SSW,202,1.8,1.8,70,0.00,,,0.00,WUHU21623XXSP,2013-06-15 23:12:00,
2013-06-15 19:17:00,71.1,60.4,29.99,SSW,213,1.7,1.8,69,0.00,,,0.00,WUHU21623XXSP,2013-06-15 23:17:00,
2013-06-15 19:22:00,70.9,60.6,29.98,SW,225,1.3,1.3,70,0.00,,,0.00,WUHU21623XXSP,2013-06-15 23:22:00,
2013-06-15 19:27:00,70.9,60.6,29.98,North,0,0.0,0.0,70,0.00,,,0.00,WUHU21623XXSP,2013-06-15 23:27:00,
2013-06-15 19:32:00,70.5,60.3,29.98,North,0,0.0,0.0,70,0.00,,,0.00,WUHU21623XXSP,2013-06-15 23:32:00,
2013-06-15 19:37:00,70.5,60.6,29.98,North,0,0.0,0.0,71,0.00,,,0.00,WUHU21623XXSP,2013-06-15 23:37:00,
2013-06-15 19:42:00,70.3,60.5,29.98,SW,225,1.6,1.6,71,0.00,,,0.00,WUHU21623XXSP,2013-06-15 23:42:00,
2013-06-15 19:47:00,70.3,60.5,29.98,North,0,0.0,0.0,71,0.00,,,0.00,WUHU21623XXSP,2013-06-15 23:47:00,
2013-06-15 19:52:00,70.2,60.5,29.98,SSW,202,1.1,1.1,71,0.00,,,0.00,WUHU21623XXSP,2013-06-15 23:52:00,
2013-06-15 19:57:00,70.0,60.1,29.98,SSW,202,2.9,2.9,71,0.00,,,0.00,WUHU21623XXSP,2013-06-15 23:57:00,
2013-06-15 20:02:00,70.0,60.1,29.98,SSW,202,2.9,2.9,71,0.00,,,0.00,WUHU21623XXSP,2013-06-16 00:02:00,
2013-06-15 20:07:00,70.0,60.5,29.98,North,0,0.0,0.0,72,0.00,,,0.00,WUHU21623XXSP,2013-06-16 00:07:00,
2013-06-15 20:12:00,69.6,60.1,29.98,North,0,0.0,0.0,72,0.00,,,0.00,WUHU21623XXSP,2013-06-16 00:12:00,
2013-06-15 20:17:00,69.6,60.1,29.98,SSW,202,1.8,1.8,72,0.00,,,0.00,WUHU21623XXSP,2013-06-16 00:17:00,
2013-06-15 20:22:00,69.6,60.5,29.98,North,0,0.0,0.0,73,0.00,,,0.00,WUHU21623XXSP,2013-06-16 00:22:00,
2013-06-15 20:27:00,69.4,60.4,29.98,North,0,0.0,0.0,73,0.00,,,0.00,WUHU21623XXSP,2013-06-16 00:27:00,
2013-06-15 20:32:00,69.4,60.4,29.98,North,0,0.0,0.0,73,0.00,,,0.00,WUHU21623XXSP,2013-06-16 00:32:00,
2013-06-15 20:37:00,69.4,60.7,29.97,North,0,0.0,0.0,74,0.00,,,0.00,WUHU21623XXSP,2013-06-16 00:37:00,
2013-06-15 20:42:00,69.1,60.4,29.97,North,0,0.0,0.0,74,0.00,,,0.00,WUHU21623XXSP,2013-06-16 00:42:00,
2013-06-15 20:47:00,69.1,60.4,29.97,North,0,0.0,0.0,74,0.00,,,0.00,WUHU21623XXSP,2013-06-16 00:47:00,
2013-06-15 20:52:00,68.7,60.5,29.97,North,0,0.0,0.0,75,0.00,,,0.00,WUHU21623XXSP,2013-06-16 00:52:00,
2013-06-15 20:57:00,68.7,60.5,29.98,North,0,0.0,0.0,75,0.00,,,0.00,WUHU21623XXSP,2013-06-16 00:57:00,
2013-06-15 21:02:00,68.5,60.3,29.98,North,0,0.0,0.0,75,0.00,,,0.00,WUHU21623XXSP,2013-06-16 01:02:00,
2013-06-15 21:07:00,68.5,60.3,29.98,North,0,0.0,0.0,75,0.00,,,0.00,WUHU21623XXSP,2013-06-16 01:07:00,
2013-06-15 21:12:00,68.2,60.4,29.97,North,0,0.0,0.0,76,0.00,,,0.00,WUHU21623XXSP,2013-06-16 01:12:00,
2013-06-15 21:17:00,68.0,60.2,29.97,North,0,0.0,0.0,76,0.00,,,0.00,WUHU21623XXSP,2013-06-16 01:17:00,
2013-06-15 21:22:00,67.8,60.0,29.97,North,0,0.0,0.0,76,0.00,,,0.00,WUHU21623XXSP,2013-06-16 01:22:00,
2013-06-15 21:27:00,67.3,59.8,29.97,North,0,0.0,0.0,77,0.00,,,0.00,WUHU21623XXSP,2013-06-16 01:27:00,
2013-06-15 21:32:00,67.1,59.8,29.97,North,0,0.0,0.0,78,0.00,,,0.00,WUHU21623XXSP,2013-06-16 01:32:00,
2013-06-15 21:37:00,66.9,59.9,29.96,North,0,0.0,0.0,78,0.00,,,0.00,WUHU21623XXSP,2013-06-16 01:37:00,
2013-06-15 21:42:00,66.6,59.7,29.96,North,0,0.0,0.0,78,0.00,,,0.00,WUHU21623XXSP,2013-06-16 01:42:00,
2013-06-15 21:47:00,66.4,59.7,29.96,North,0,0.0,0.0,79,0.00,,,0.00,WUHU21623XXSP,2013-06-16 01:47:00,
2013-06-15 21:52:00,66.0,59.3,29.96,North,0,0.0,0.0,79,0.00,,,0.00,WUHU21623XXSP,2013-06-16 01:52:00,
2013-06-15 21:57:00,65.7,59.4,29.96,North,0,0.0,0.0,80,0.00,,,0.00,WUHU21623XXSP,2013-06-16 01:57:00,
2013-06-15 22:02:00,65.5,59.2,29.96,North,0,0.0,0.0,80,0.00,,,0.00,WUHU21623XXSP,2013-06-16 02:02:00,
2013-06-15 22:07:00,65.3,59.3,29.96,North,0,0.0,0.0,81,0.00,,,0.00,WUHU21623XXSP,2013-06-16 02:07:00,
2013-06-15 22:12:00,65.1,59.1,29.96,North,0,0.0,0.0,81,0.00,,,0.00,WUHU21623XXSP,2013-06-16 02:12:00,
2013-06-15 22:17:00,64.9,59.0,29.96,North,0,0.0,0.0,81,0.00,,,0.00,WUHU21623XXSP,2013-06-16 02:17:00,
2013-06-15 22:22:00,64.8,58.8,29.96,North,0,0.0,0.0,81,0.00,,,0.00,WUHU21623XXSP,2013-06-16 02:22:00,
2013-06-15 22:27:00,64.6,58.6,29.96,North,0,0.0,0.0,81,0.00,,,0.00,WUHU21623XXSP,2013-06-16 02:27:00,
2013-06-15 22:32:00,64.6,58.9,29.96,North,0,0.0,0.0,82,0.00,,,0.00,WUHU21623XXSP,2013-06-16 02:32:00,
2013-06-15 22:37:00,64.2,58.6,29.96,North,0,0.0,0.0,82,0.00,,,0.00,WUHU21623XXSP,2013-06-16 02:37:00,
2013-06-15 22:42:00,64.2,58.9,29.96,North,0,0.0,0.0,83,0.00,,,0.00,WUHU21623XXSP,2013-06-16 02:42:00,
2013-06-15 22:47:00,64.2,58.9,29.96,North,0,0.0,0.0,83,0.00,,,0.00,WUHU21623XXSP,2013-06-16 02:47:00,
2013-06-15 22:52:00,64.2,58.9,29.96,North,0,0.0,0.0,83,0.00,,,0.00,WUHU21623XXSP,2013-06-16 02:52:00,
2013-06-15 22:57:00,64.2,58.9,29.96,North,0,0.0,0.0,83,0.00,,,0.00,WUHU21623XXSP,2013-06-16 02:57:00,
2013-06-15 23:02:00,64.2,59.3,29.95,North,0,0.0,0.0,84,0.00,,,0.00,WUHU21623XXSP,2013-06-16 03:02:00,
2013-06-15 23:07:00,64.0,59.1,29.95,North,0,0.0,0.0,84,0.00,,,0.00,WUHU21623XXSP,2013-06-16 03:07:00,
2013-06-15 23:12:00,64.0,59.1,29.94,North,0,0.0,0.0,84,0.00,,,0.00,WUHU21623XXSP,2013-06-16 03:12:00,
2013-06-15 23:17:00,64.0,59.1,29.94,North,0,0.0,0.0,84,0.00,,,0.00,WUHU21623XXSP,2013-06-16 03:17:00,
2013-06-15 23:22:00,64.0,59.1,29.94,North,0,0.0,0.0,84,0.00,,,0.00,WUHU21623XXSP,2013-06-16 03:22:00,
2013-06-15 23:27:00,64.0,59.1,29.94,North,0,0.0,0.0,84,0.00,,,0.00,WUHU21623XXSP,2013-06-16 03:27:00,
2013-06-15 23:32:00,64.0,59.1,29.95,North,0,0.0,0.0,84,0.00,,,0.00,WUHU21623XXSP,2013-06-16 03:32:00,
2013-06-15 23:37:00,64.0,59.1,29.95,North,0,0.0,0.0,84,0.00,,,0.00,WUHU21623XXSP,2013-06-16 03:37:00,
2013-06-15 23:42:00,64.0,59.1,29.94,North,0,0.0,0.0,84,0.00,,,0.00,WUHU21623XXSP,2013-06-16 03:42:00,
2013-06-15 23:47:00,64.0,59.5,29.94,SSE,157,1.6,1.6,85,0.00,,,0.00,WUHU21623XXSP,2013-06-16 03:47:00,
2013-06-15 23:52:00,64.0,59.5,29.94,SSE,157,1.6,1.6,85,0.00,,,0.00,WUHU21623XXSP,2013-06-16 03:52:00,
2013-06-15 23:57:00,64.0,59.5,29.94,North,0,0.0,0.0,85,0.00,,,0.00,WUHU21623XXSP,2013-06-16 03:57:00,